Regional Weather Roundup
Issued by NWS

Home | Current Version | Previous Version | Graphics & Text | Print | Product List | Glossary On
Versions: 1 2 3 4 5 6 7 8 9 10 11 12 13 14 15 16 17 18 19 20 21 22 23 24 25 26 27 28 29 30 31 32 33 34 35 36 37 38 39 40 41 42 43 44 45 46 47 48 49 50
000
ASUS43 KMKX 170021
RWRWI

WISCONSIN REGIONAL WEATHER ROUNDUP
NATIONAL WEATHER SERVICE MILWAUKEE/SULLIVAN WI
700 PM CDT WED APR 16 2014

NOTE: "FAIR" INDICATES FEW OR NO CLOUDS BELOW 12,000 FEET WITH NO
SIGNIFICANT WEATHER AND/OR OBSTRUCTIONS TO VISIBILITY.

WIZ001-002-006>008-014>016-023>028-170100-
NORTHWEST WISCONSIN

CITY           SKY/WX    TMP DP  RH WIND       PRES   REMARKS
SUPERIOR ARPT  LGT SNOW  28  26  94 NE20G30   30.16R VSB 1   WCI  15
6HR MIN TEMP:  27; 6HR MAX TEMP:  28; 6HR PCP:  0.08;

ASHLAND        HVY SNOW  27  26  96 NE21G28   30.16R VSB 1/4 WCI  13
6HR MIN TEMP:  27; 6HR MAX TEMP:  27; 6HR PCP:  0.18;

HAYWARD        SNOW      29  26  89 NE14      30.05R VSB 1/2 WCI  18
6HR MIN TEMP:  28; 6HR MAX TEMP:  29; 6HR PCP:  0.24;

SIREN          LGT SNOW  29  28  96 NE13G18   30.03R VSB 3/4 WCI  19
6HR MIN TEMP:  29; 6HR MAX TEMP:  30;

RICE LAKE      MIX PCPN  34  32  91 NE9       29.99R WCI  27
6HR MIN TEMP:  31; 6HR MAX TEMP:  37; 6HR PCP:  0.01;

LADYSMITH      CLOUDY    36  31  80 E13G20    30.01S WCI  28
6HR MIN TEMP:  30; 6HR MAX TEMP:  37; 6HR PCP:  0.01;

EAU CLAIRE     CLOUDY    48  31  51 E14       29.91R
6HR MIN TEMP:  39; 6HR MAX TEMP:  49; 6HR PCP: TRACE;

MENOMONIE      DRIZZLE   42  34  73 NE6       29.90S
6HR MIN TEMP:  35; 6HR MAX TEMP:  45;

NEW RICHMOND   LGT RAIN  33  33 100 NE10      29.94R WCI  25
6HR MIN TEMP:  32; 6HR MAX TEMP:  36; 6HR PCP:  0.06;

OSCEOLA        SNOW      33  33 100 N10       29.99R VSB 1/2 WCI  24
6HR MIN TEMP:  32; 6HR MAX TEMP:  34; 6HR PCP:  0.03;

$$

WIZ003>005-009-010-017-018-170100-
NORTH CENTRAL WISCONSIN

CITY           SKY/WX    TMP DP  RH WIND       PRES   REMARKS
WOODRUFF       LGT SNOW  32  28  84 SE12      30.07S VSB 3/4 WCI  23
6HR MIN TEMP:  32; 6HR MAX TEMP:  32; 6HR PCP:  0.02;

RHINELANDER    FLURRIES  30  25  81 E21       30.07F WCI  17
6HR MIN TEMP:  26; 6HR MAX TEMP:  30; 6HR PCP:  0.01;

EAGLE RIVER    LGT SNOW  29  25  85 SE10G18   30.09S VSB 1   WCI  20
6HR MIN TEMP:  26; 6HR MAX TEMP:  31;

LAND O LAKES   LGT SNOW  29  28  93 SE8       30.12S VSB 3/4 WCI  21
6HR MIN TEMP:  26; 6HR MAX TEMP:  30;

PHILLIPS       CLOUDY    32  27  81 E12       30.02S WCI  23
6HR MIN TEMP:  27; 6HR MAX TEMP:  32; 6HR PCP:  0.01;

TOMAHAWK       CLOUDY    33  27  78 E5        30.05R WCI  28
6HR MIN TEMP:  29; 6HR MAX TEMP:  33; 6HR PCP:  0.14;

MEDFORD        RAIN      36  29  76 E13G18    29.99R WCI  27
6HR MIN TEMP:  31; 6HR MAX TEMP:  38;

MERRILL        CLOUDY    35  28  76 CALM      30.04F
6HR MIN TEMP:  31; 6HR MAX TEMP:  36;

$$

WIZ029-030-035-036-043>047-170100-
CENTRAL WISCONSIN

CITY           SKY/WX    TMP DP  RH WIND       PRES   REMARKS
WAUSAU         CLOUDY    36  28  73 E18G25    30.03S WCI  26
6HR MIN TEMP:  32; 6HR MAX TEMP:  38;

MOSINEE        CLOUDY    37  28  70 E15G23    30.04S WCI  28
MARSHFIELD     CLOUDY    40  30  67 E15       29.99R WCI  32
6HR MIN TEMP:  35; 6HR MAX TEMP:  44;

STEVENS POINT  CLOUDY    36  27  69 E16G24    30.05S WCI  27
6HR MIN TEMP:  35; 6HR MAX TEMP:  40;

WAUPACA        CLOUDY    41  27  56 SE17G25   30.09R
WAUTOMA        CLOUDY    46  31  56 E12G18    30.05R
6HR MIN TEMP:  44; 6HR MAX TEMP:  48;

WISC RAPIDS    CLOUDY    44  30  57 SE12      30.01F
6HR MIN TEMP:  40; 6HR MAX TEMP:  45;

CAMP DOUGLAS   CLOUDY    48  32  53 SE12G20   29.98R
$$

WIZ011>013-019>022-031-037>040-048>050-170100-
NORTHEAST WISCONSIN

CITY           SKY/WX    TMP DP  RH WIND       PRES   REMARKS
ANTIGO         CLOUDY    32  26  77 SE20G29   30.08F WCI  20
6HR MIN TEMP:  29; 6HR MAX TEMP:  32;

STURGEON BAY   CLOUDY    32  27  80 E13G23    30.20F WCI  22
6HR MIN TEMP:  32; 6HR MAX TEMP:  37;

GREEN BAY      CLOUDY    38  24  57 SE21      30.16F WCI  28
6HR MIN TEMP:  37; 6HR MAX TEMP:  39;

MANITOWOC      CLOUDY    38  26  62 SE16      30.18F WCI  29
6HR MIN TEMP:  35; 6HR MAX TEMP:  38;

APPLETON       CLOUDY    37  25  60 SE20G28   30.11F WCI  27
CLINTONVILLE   CLOUDY    37  27  65 SE13G24   30.11S WCI  29
OSHKOSH        CLOUDY    40  25  55 SE14G28   30.10S WCI  32
6HR MIN TEMP:  40; 6HR MAX TEMP:  45;

$$

WIZ032>034-041-042-053>061-170100-
SOUTHWEST WISCONSIN

CITY           SKY/WX    TMP DP  RH WIND       PRES   REMARKS
LA CROSSE      CLOUDY    53  27  36 SE24G30   29.89F
6HR MIN TEMP:  53; 6HR MAX TEMP:  55;

SPARTA         CLOUDY    50  27  40 SE15G23   29.95R
6HR MIN TEMP:  49; 6HR MAX TEMP:  52;

VIROQUA        MOCLDY    49  29  46 SE18G25   29.93S
6HR MIN TEMP:  48; 6HR MAX TEMP:  52;

BOSCOBEL       CLOUDY    53  27  36 MISG      29.97R
6HR MIN TEMP:  52; 6HR MAX TEMP:  57;

PRAIRIE DU CHI CLOUDY    53  25  33 SE13      29.93S
6HR MIN TEMP:  52; 6HR MAX TEMP:  56;

PLATTEVILLE    FAIR      50  30  46 SE15G24   29.99R
6HR MIN TEMP:  50; 6HR MAX TEMP:  55;

$$

WIZ056-057-062-063-064-067-068-170100-
SOUTH CENTRAL WISCONSIN

CITY           SKY/WX    TMP DP  RH WIND       PRES   REMARKS
BARABOO/DELLS  CLOUDY    47  29  48 SE18G24   29.98F
6HR MIN TEMP:  45; 6HR MAX TEMP:  51;

LONE ROCK      CLOUDY    51  29  42 S13G23    29.99R
6HR MIN TEMP:  49; 6HR MAX TEMP:  55;

WATERTOWN      CLOUDY    45  29  53 E13G18    30.07S
6HR MIN TEMP:  45; 6HR MAX TEMP:  50;

MADISON        CLOUDY    49  30  48 SE16      30.02F
6HR MIN TEMP:  47; 6HR MAX TEMP:  52;

MIDDLETON      MOCLDY    50  28  43 S17       30.01F
6HR MIN TEMP:  48; 6HR MAX TEMP:  53;

MONROE         CLOUDY    49  29  47 SE22G30   29.98F
6HR MIN TEMP:  47; 6HR MAX TEMP:  52;

JANESVILLE     CLOUDY    52  25  35 SE20G26   30.05F
$$

WIZ051-052-058>065-066-070>072-170100-
SOUTHEAST WISCONSIN

CITY           SKY/WX    TMP DP  RH WIND       PRES   REMARKS
MILWAUKEE      CLOUDY    41  28  60 SE21      30.15F
6HR MIN TEMP:  41; 6HR MAX TEMP:  45;

WAUKESHA       CLOUDY    43  23  45 SE20G25   30.12F
MILWAUKEE/TIMM CLEAR     43  25  49 SE10G21   30.14F
RACINE         MOCLDY    42  27  55 SE17G24   30.16F
6HR MIN TEMP:  40; 6HR MAX TEMP:  44;

BURLINGTON     MOCLDY    44  27  50 SW14G20   30.11R
6HR MIN TEMP:  44; 6HR MAX TEMP:  51;

KENOSHA        MOCLDY    43  27  53 SE13G22   30.13F
6HR MIN TEMP:  43; 6HR MAX TEMP:  47;

FOND DU LAC    CLOUDY    41  24  51 SE22G29   30.10F
6HR MIN TEMP:  41; 6HR MAX TEMP:  46;

SHEBOYGAN      CLOUDY    39  23  52 SE15G24   30.16F WCI  31
6HR MIN TEMP:  37; 6HR MAX TEMP:  40;

WEST BEND      CLOUDY    37  23  56 SE10G20   30.14S WCI  30
JUNEAU         CLOUDY    44  23  44 SE23G29   30.08S
6HR MIN TEMP:  44; 6HR MAX TEMP:  48;

$$

LSZ147-162-170100-
LAKE SUPERIOR

STATION/POSITION TIME  TEMP    WIND        PRES    WAVE
                       AIR SEA DIR/SP/G            HT/PER
                 (UTC) (F)     (DEG/KT/KT) (MB)    (FT/S)
DEVILS ISLAND    0000   28      60/ 27/ 30 1023.9R
PORT WING        0002   28      50/ 20/ 25 1021.3S
SAXON HARBOR     2300           50/ 20/ 23 1020.7
$$

LMZ867-665-643>646-170100-
LAKE MICHIGAN

STATION/POSITION TIME  TEMP    WIND        PRES    WAVE
                       AIR SEA DIR/SP/G            HT/PER
                 (UTC) (F)     (DEG/KT/KT) (MB)    (FT/S)
NORTHPORT PIER   2300   31     100/ 19/ 23 1025.1R
SISTER BAY       2323   32     120/ 17/ 24   N/A
SHEBOYGAN LAKESH 0000   39     120/ 23/ 24 1022.2F
PORT WASHINGTON  2300   39     120/ 14/ 19 1021.7F
MILWAUKEE LAKESH 0000   39     120/ 18/ 21   N/A
KENOSHA   LAKESH 0000   40     130/ 22/ 25   N/A
$$

TC  - TEMPERATURE IN CELSIUS
VSB - VISIBILITY IN STATUTE MILES
WCI - WIND CHILL INDEX
HX  - HEAT INDEX




USA.gov is the U.S. government's official web portal to all federal, state and local government web resources and services.